[[{"header":{"parameterUnit":"m.s-1","parameterCategory":1,"la1":30.2991,"la2":30.254,"lo1":-89.0895,"lo2":-89.0444,"dy":0.0017,"dx":0.0017,"nx":28,"ny":28,"refTime":"2024-02-22T03:00:00:Z","depth":0,"parameterNumber":2,"parameterNumberName":"U-component_of_WINDS"},"data":[0,0,0,0,0,0,0,0,0,0,0,0,0,0,0,0,0,0,0,0,0,0,0,0,0,0,0,0,0,0,0,0,0,0,0,0,0,0,0,0,0,0,0,0,0,0,0,0,0,0,0,0,0,0,0,0,0,0,2.3762,2.3762,0,2.3741,2.3741,2.3741,2.3679,2.3677,2.3676,2.3675,2.3657,2.3658,2.3658,0,0,0,0,0,0,0,0,0,0,0,0,0,2.3752,2.3753,2.3762,2.3762,2.3762,2.3741,2.3741,2.3741,2.3679,2.3677,2.3676,2.3674,2.3657,2.3658,2.3658,0,0,0,0,0,0,0,0,0,0,0,0,0,2.3747,2.3753,2.3762,2.3728,2.3725,2.3741,2.3741,2.3741,2.3679,2.3677,2.3675,2.3673,2.3656,2.3657,2.3659,2.3707,0,0,2.3662,2.3663,0,0,0,0,0,0,0,0,2.3747,2.3747,2.3734,2.3731,2.3727,2.371,2.3731,2.3729,2.368,2.3697,2.3675,2.3672,2.3677,2.3676,2.3677,2.3706,2.3705,2.3662,2.3663,2.3664,2.3664,0,0,0,0,0,0,0,2.3748,2.3748,2.3754,2.3734,2.373,2.3715,2.3712,2.373,2.3699,2.3695,2.3691,2.3689,2.3674,2.3676,2.3676,2.3705,2.3662,2.3663,2.3664,2.3665,2.3772,2.3774,0,0,0,0,0,0,2.3752,2.3748,2.3755,2.3753,2.3732,2.3717,2.3714,2.3718,2.3698,2.3693,2.3691,2.3686,2.3675,2.3674,2.3675,2.373,2.3664,2.3665,2.3665,2.377,2.3773,2.3775,0,0,0,0,0,0,2.3752,2.3753,2.3755,2.375,2.3749,2.3719,2.3725,2.3719,2.372,2.3695,2.3689,2.3697,2.3673,2.3673,2.3699,2.3728,2.3665,2.3666,2.3768,2.3771,2.3774,2.384,0,0,0,0,0,0,2.3752,2.3754,2.3771,2.375,2.3749,2.3779,2.3727,2.372,2.3721,2.3715,2.37,2.3695,2.3671,2.3698,2.37,2.3729,2.3667,2.3765,2.3769,2.3773,2.3835,2.3845,2.3854,0,0,0,0,0,2.3752,2.3791,2.3772,2.3773,2.377,2.3781,2.3781,2.3751,2.3724,2.3742,2.3725,2.3696,2.3725,2.3701,2.3703,2.3732,2.3763,2.3768,2.3773,2.3831,2.3843,2.3853,0,0,0,0,0,0,2.3818,2.3788,2.3767,2.38,2.3793,2.3771,2.3792,2.3765,2.3767,2.3762,2.3727,2.3724,2.3754,2.3746,2.372,2.3778,2.3739,2.3744,2.3782,2.3794,2.3803,2.3804,2.3668,0,0,0,0,0,2.3836,2.3846,2.382,2.3852,2.385,2.3822,2.3825,2.3803,2.3796,2.3793,2.3778,2.3773,2.3781,2.3787,2.3792,2.3833,2.3829,2.3855,2.3864,2.3872,2.3877,2.3898,2.3909,2.3791,2.3791,2.3791,0,0,2.3874,2.3859,2.3868,2.3865,2.3857,2.387,2.382,2.3835,2.3844,2.3795,2.3818,2.3808,2.3799,2.3833,2.3847,2.3827,2.3909,2.3878,2.3884,2.3885,2.3904,2.3915,2.3925,2.3794,2.3794,2.3793,0,0,2.395,2.3939,2.3964,2.3957,2.3946,2.3926,2.3933,2.3914,2.3904,2.3927,2.389,2.3901,2.3915,2.391,2.391,2.3983,2.3956,2.3986,2.4035,2.4055,2.4065,2.4073,2.4099,2.4108,2.3991,2.3992,2.3992,0,2.3999,2.4015,2.3981,2.3998,2.3998,2.3954,2.3979,2.3975,2.3966,2.3968,2.3945,2.3961,2.3952,2.3984,2.4002,2.4003,2.4009,2.3988,2.4066,2.4073,2.408,2.4105,2.4115,2.3995,2.3995,2.3995,2.3994,0,2.4075,2.4087,2.4109,2.41,2.4103,2.4125,2.4095,2.4102,2.408,2.4064,2.4087,2.4075,2.4077,2.4083,2.4062,2.4111,2.4099,2.4072,2.4032,2.4096,2.4118,2.4127,2.4001,2.3999,2.3998,2.3997,0,0,2.4192,2.4164,2.4173,2.4168,2.4152,2.416,2.418,2.4181,2.4188,2.4183,2.4199,2.4212,2.4186,2.4185,2.4164,2.4182,2.424,2.4152,2.4151,2.4169,2.4294,2.4315,2.4326,2.4222,2.4223,2.4225,2.4294,0,2.4263,2.4294,2.4265,2.4302,2.4312,2.427,2.4287,2.4279,2.4264,2.4272,2.4256,2.4265,2.423,2.423,2.4246,2.423,2.4265,2.4224,2.4237,2.4238,2.424,2.4337,2.436,2.4426,2.4303,2.4304,2.4305,0,2.435,2.4349,2.4386,2.4367,2.437,2.4386,2.4384,2.4392,2.4382,2.437,2.4369,2.4342,2.4361,2.4322,2.4347,2.432,2.4324,2.4317,2.4319,2.4319,2.4276,2.434,2.4447,2.4457,2.4319,2.4318,2.4317,0,2.4432,2.4439,2.4462,2.4459,2.4437,2.4449,2.4441,2.4429,2.4432,2.4431,2.4432,2.4434,2.4435,2.4437,2.4411,2.4385,2.444,2.4399,2.4431,2.4432,2.4444,2.4444,2.4553,2.4447,2.4447,2.4447,2.4446,0,2.4514,2.4539,2.4498,2.4512,2.4539,2.4505,2.4533,2.452,2.451,2.4522,2.4486,2.4498,2.4463,2.4472,2.4452,2.4476,2.4477,2.4468,2.4462,2.4471,2.4472,2.4473,2.4468,2.4449,2.4449,2.4448,2.4448,0,2.4609,2.4583,2.4605,2.4582,2.4577,2.4598,2.4578,2.4591,2.4573,2.4589,2.4591,2.4563,2.4572,2.4546,2.4551,2.4537,2.4572,2.4559,2.4575,2.4571,2.4605,2.4602,2.4718,2.4731,2.4617,2.4618,2.4619,0,2.4663,2.4681,2.466,2.4664,2.4657,2.4666,2.4667,2.4635,2.4639,2.4629,2.4643,2.4648,2.465,2.4665,2.4647,2.465,2.4637,2.4677,2.4637,2.4645,2.4637,2.4636,2.4638,2.4685,2.4687,2.4688,2.4689,0,2.4763,2.4748,2.4752,2.475,2.4753,2.4751,2.4746,2.4753,2.4718,2.4724,2.4731,2.4733,2.4736,2.4742,2.4741,2.4733,2.4706,2.4701,2.4709,2.4718,2.4726,2.4722,2.4598,2.4699,2.4698,2.4697,2.4697,2.4696,2.4839,2.4852,2.4839,2.4844,2.4837,2.4833,2.4844,2.4827,2.4832,2.4832,2.4813,2.4824,2.4814,2.4809,2.4804,2.4813,2.4795,2.4806,2.4808,2.4812,2.4817,2.4725,2.4813,2.4813,2.4812,2.4812,2.4812,0,2.4936,2.4925,2.493,2.4924,2.4928,2.49,2.4893,2.4899,2.4909,2.4901,2.4903,2.4912,2.4917,2.4898,2.4901,2.4911,2.4899,2.4913,2.4912,2.4911,2.4834,2.4827,2.4923,2.4923,2.4923,2.4923,2.4923,2.4923,2.4987,2.5008,2.4992,2.501,2.4999,2.5009,2.5008,2.5004,2.4998,2.5008,2.5012,2.4999,2.4987,2.4988,2.4992,2.4986,2.4989,2.5008,2.4998,2.4927,2.4916,2.4906,2.4899,2.5009,2.5009,2.5074,2.5074,2.5075]},{"header":{"parameterUnit":"m.s-1","parameterCategory":1,"la1":30.2991,"la2":30.254,"lo1":-89.0895,"lo2":-89.0444,"dy":0.0017,"dx":0.0017,"nx":28,"ny":28,"refTime":"2024-02-22T03:00:00:Z","depth":0,"parameterNumber":3,"parameterNumberName":"V-component_of_WINDS"},"data":[0,0,0,0,0,0,0,0,0,0,0,0,0,0,0,0,0,0,0,0,0,0,0,0,0,0,0,0,0,0,0,0,0,0,0,0,0,0,0,0,0,0,0,0,0,0,0,0,0,0,0,0,0,0,0,0,0,0,5.4729,5.4729,0,5.4697,5.4696,5.4696,5.4669,5.4669,5.4669,5.4669,5.4631,5.4631,5.463,0,0,0,0,0,0,0,0,0,0,0,0,0,5.4766,5.4766,5.473,5.4729,5.4729,5.4697,5.4696,5.4696,5.4669,5.4669,5.4669,5.4668,5.4632,5.4631,5.463,0,0,0,0,0,0,0,0,0,0,0,0,0,5.4743,5.4766,5.473,5.4712,5.471,5.4697,5.4696,5.4696,5.4669,5.4669,5.4669,5.4668,5.4632,5.4631,5.463,5.463,0,0,5.4626,5.4626,0,0,0,0,0,0,0,0,5.4745,5.4742,5.4715,5.4713,5.4711,5.4687,5.4695,5.4674,5.467,5.4685,5.4669,5.4668,5.465,5.4647,5.4642,5.4629,5.4627,5.4626,5.4625,5.4625,5.4625,0,0,0,0,0,0,0,5.4746,5.4743,5.4716,5.4714,5.4712,5.4704,5.4701,5.4691,5.467,5.4683,5.4681,5.4678,5.4649,5.4643,5.4641,5.4626,5.4626,5.4625,5.4624,5.4624,5.4611,5.4611,0,0,0,0,0,0,5.4751,5.4745,5.4717,5.4715,5.4727,5.4704,5.47,5.4695,5.467,5.4666,5.4678,5.4677,5.4645,5.4642,5.4639,5.4638,5.4625,5.4624,5.4623,5.4611,5.4611,5.4612,0,0,0,0,0,0,5.4752,5.4749,5.4719,5.473,5.4725,5.4704,5.4698,5.4694,5.4689,5.4666,5.4662,5.4677,5.4645,5.4641,5.4633,5.4636,5.4623,5.4622,5.461,5.4611,5.4611,5.4636,0,0,0,0,0,0,5.4753,5.475,5.475,5.473,5.4725,5.4714,5.4698,5.4694,5.4687,5.4685,5.4663,5.4659,5.4644,5.4635,5.4632,5.4634,5.4621,5.461,5.4611,5.4611,5.4634,5.4637,5.4639,0,0,0,0,0,5.4755,5.4758,5.4751,5.4747,5.4726,5.4714,5.4711,5.4695,5.4688,5.4688,5.4673,5.466,5.4636,5.4634,5.463,5.4633,5.461,5.461,5.4611,5.4633,5.4637,5.4639,0,0,0,0,0,0,5.4779,5.4755,5.4747,5.4744,5.4731,5.471,5.471,5.4698,5.4687,5.4685,5.4664,5.4659,5.4653,5.4642,5.464,5.4632,5.4621,5.4621,5.4639,5.4642,5.4644,5.4647,5.462,0,0,0,0,0,5.4784,5.4778,5.4757,5.4756,5.4751,5.4731,5.4726,5.4714,5.47,5.4694,5.4679,5.4665,5.4654,5.4647,5.4636,5.4633,5.4627,5.4633,5.4635,5.4637,5.4637,5.4633,5.4635,5.4614,5.4614,5.4614,0,0,5.4794,5.478,5.4778,5.4761,5.475,5.4743,5.4727,5.4721,5.4715,5.4693,5.4685,5.4673,5.4655,5.465,5.4646,5.464,5.4642,5.4638,5.464,5.4639,5.4634,5.4636,5.4638,5.4615,5.4614,5.4614,0,0,5.4809,5.4798,5.4796,5.4786,5.477,5.4757,5.4757,5.4737,5.4729,5.472,5.4703,5.4696,5.4678,5.4666,5.4658,5.4668,5.4655,5.4665,5.4677,5.4673,5.4675,5.4676,5.4679,5.468,5.4665,5.4665,5.4665,0,5.4823,5.4813,5.4797,5.4791,5.4784,5.4765,5.4762,5.4752,5.4733,5.4728,5.4721,5.4698,5.4685,5.4676,5.4679,5.4673,5.467,5.4667,5.4676,5.4677,5.4678,5.4681,5.4682,5.4666,5.4666,5.4666,5.4666,0,5.4831,5.4825,5.4825,5.4808,5.4801,5.4796,5.4778,5.4772,5.4761,5.4748,5.4739,5.4723,5.4708,5.4705,5.4693,5.4693,5.469,5.4681,5.4669,5.4682,5.4684,5.4685,5.4668,5.4668,5.4667,5.4667,0,0,5.4861,5.4835,5.4835,5.4827,5.4808,5.4801,5.4796,5.4782,5.4777,5.4765,5.4759,5.4744,5.4735,5.4725,5.4712,5.4709,5.4717,5.4699,5.4699,5.4703,5.4715,5.4723,5.4724,5.4709,5.4709,5.4709,5.4717,0,5.4872,5.4863,5.4847,5.4842,5.4835,5.4817,5.4812,5.4799,5.4786,5.4778,5.4763,5.4753,5.4742,5.4736,5.4733,5.4717,5.4719,5.4716,5.4702,5.4701,5.4707,5.4725,5.4733,5.4741,5.4717,5.4717,5.4718,0,5.4885,5.4874,5.4869,5.485,5.4846,5.4842,5.4828,5.482,5.4805,5.4796,5.4785,5.4771,5.4763,5.4753,5.474,5.4739,5.4732,5.4723,5.4723,5.4721,5.471,5.4723,5.4744,5.4745,5.4719,5.4719,5.4718,0,5.4906,5.489,5.4885,5.4878,5.4856,5.4854,5.4844,5.4828,5.4821,5.4808,5.4803,5.4789,5.4781,5.477,5.4751,5.4746,5.4741,5.4729,5.4732,5.4732,5.4731,5.4732,5.4751,5.4728,5.4728,5.4728,5.4727,0,5.4921,5.4918,5.4894,5.4891,5.4887,5.4868,5.4864,5.4853,5.4839,5.4832,5.4814,5.4808,5.4784,5.4775,5.476,5.4752,5.4748,5.474,5.4736,5.4741,5.4742,5.4736,5.4735,5.4728,5.4728,5.4728,5.4728,0,5.4944,5.4928,5.4921,5.4901,5.4895,5.4893,5.4875,5.487,5.4857,5.4848,5.4845,5.4824,5.4812,5.4793,5.4774,5.4764,5.4758,5.4752,5.4764,5.4761,5.4765,5.4764,5.478,5.4781,5.4758,5.4758,5.4758,0,5.4954,5.4952,5.4931,5.4926,5.4918,5.4909,5.4902,5.4883,5.4876,5.4857,5.4855,5.4841,5.4829,5.481,5.4792,5.4778,5.4771,5.4777,5.4768,5.4773,5.477,5.477,5.477,5.4779,5.4779,5.478,5.478,0,5.4974,5.4966,5.4957,5.4945,5.4937,5.4926,5.4914,5.491,5.4889,5.4881,5.4869,5.486,5.4842,5.4828,5.4811,5.4799,5.4786,5.4783,5.4783,5.4788,5.4795,5.4791,5.4769,5.4783,5.4782,5.4782,5.4782,5.4782,5.4991,5.4987,5.4973,5.4963,5.4952,5.4941,5.4936,5.4922,5.4912,5.4897,5.4886,5.4874,5.4857,5.4833,5.4822,5.4811,5.4806,5.4805,5.4805,5.4805,5.4807,5.4797,5.4808,5.4808,5.4808,5.4808,5.4808,0,5.5009,5.4999,5.499,5.4974,5.4966,5.4955,5.4942,5.4935,5.4926,5.4911,5.4901,5.4886,5.4872,5.4853,5.4838,5.4833,5.4826,5.483,5.483,5.4827,5.4813,5.4815,5.4835,5.4835,5.4835,5.4835,5.4835,5.4835,5.5018,5.5012,5.5002,5.499,5.4979,5.4969,5.4962,5.4951,5.494,5.4925,5.4914,5.4902,5.4886,5.4869,5.4856,5.485,5.4845,5.485,5.4843,5.4831,5.4828,5.4826,5.4827,5.4849,5.4849,5.4857,5.4857,5.4857]}]]